When you browse on this site, cookies collect data to enhance your experience and personalize the content and advertising you see.
Visit our Privacy Policy to learn more. By continuing to use the site, you agree to this use of cookies and data.
  • en Suisse
  • Liste des pays
  • À 7 jours
  • Température de l'eau
  • Carte météo
  • Widgets météo
  • user-avatar
    Se connecter

    Météo par heure à Ulanovka

    Ce jour, 22 Septembre, Dimanche

    Heure Température Précipitation Vent Pression Humidité
    00:00 +3°C° 0 mm 4 m/s 737 mmHg 70%
    01:00 +2°C° 0.2 mm 5 m/s 736 mmHg 77%
    02:00 +2°C° 0.2 mm 5 m/s 735 mmHg 85%
    03:00 +2°C° 0 mm 5 m/s 735 mmHg 92%
    04:00 +3°C° 0.5 mm 5 m/s 733 mmHg 92%
    05:00 +3°C° 0.5 mm 5 m/s 732 mmHg 92%
    06:00 +5°C° 0.5 mm 5 m/s 731 mmHg 93%
    07:00 +4°C° 0.1 mm 6 m/s 731 mmHg 90%
    08:00 +5°C° 0.1 mm 6 m/s 731 mmHg 87%
    09:00 +5°C° 0.1 mm 7 m/s 730 mmHg 85%
    10:00 +5°C° 0.2 mm 7 m/s 730 mmHg 85%
    11:00 +5°C° 0.2 mm 8 m/s 730 mmHg 85%
    12:00 +5°C° 0.2 mm 9 m/s 730 mmHg 85%
    13:00 +5°C° 0.3 mm 9 m/s 730 mmHg 77%
    14:00 +5°C° 0.3 mm 9 m/s 731 mmHg 70%
    15:00 +6°C° 0.3 mm 9 m/s 731 mmHg 63%
    16:00 +5°C° 0.1 mm 9 m/s 732 mmHg 66%
    17:00 +4°C° 0.1 mm 8 m/s 732 mmHg 69%
    18:00 +2°C° 0.1 mm 8 m/s 733 mmHg 72%
    19:00 +3°C° 0 mm 7 m/s 733 mmHg 74%
    20:00 +2°C° 0 mm 7 m/s 734 mmHg 76%
    21:00 0°C° 0 mm 7 m/s 735 mmHg 78%
    22:00 0°C° 0 mm 7 m/s 735 mmHg 79%
    23:00 0°C° 0 mm 7 m/s 736 mmHg 81%

    Demain, 23 Septembre, Lundi

    Heure Température Précipitation Vent Pression Humidité
    00:00 0°C° 0 mm 7 m/s 736 mmHg 83%
    01:00 +1°C° 0 mm 6 m/s 737 mmHg 82%
    02:00 +1°C° 0 mm 6 m/s 737 mmHg 82%
    03:00 +1°C° 0 mm 6 m/s 738 mmHg 82%
    04:00 +1°C° 0 mm 6 m/s 739 mmHg 80%
    05:00 +1°C° 0 mm 6 m/s 739 mmHg 78%
    06:00 +1°C° 0 mm 6 m/s 740 mmHg 76%
    07:00 +2°C° 0 mm 6 m/s 740 mmHg 74%
    08:00 +2°C° 0 mm 6 m/s 741 mmHg 71%
    09:00 +3°C° 0 mm 6 m/s 741 mmHg 69%
    10:00 +3°C° 0 mm 6 m/s 741 mmHg 67%
    11:00 +4°C° 0 mm 6 m/s 742 mmHg 66%
    12:00 +4°C° 0 mm 7 m/s 742 mmHg 65%
    13:00 +5°C° 0 mm 7 m/s 742 mmHg 63%
    14:00 +5°C° 0 mm 7 m/s 742 mmHg 61%
    15:00 +7°C° 0 mm 6 m/s 742 mmHg 60%
    16:00 +5°C° 0 mm 6 m/s 742 mmHg 61%
    17:00 +6°C° 0 mm 5 m/s 743 mmHg 63%
    18:00 +5°C° 0 mm 5 m/s 743 mmHg 64%
    19:00 +3°C° 0 mm 5 m/s 743 mmHg 66%
    20:00 +2°C° 0 mm 5 m/s 743 mmHg 67%
    21:00 +2°C° 0 mm 5 m/s 744 mmHg 68%
    22:00 +1°C° 0 mm 4 m/s 744 mmHg 71%
    23:00 0°C° 0 mm 4 m/s 744 mmHg 73%

    Après-demain, 24 Septembre, Mardi

    Heure Température Précipitation Vent Pression Humidité
    00:00 +1°C° 0 mm 3 m/s 744 mmHg 76%
    01:00 0°C° 0 mm 3 m/s 744 mmHg 78%
    02:00 0°C° 0 mm 3 m/s 744 mmHg 79%
    03:00 0°C° 0 mm 3 m/s 744 mmHg 81%
    04:00 -1°C° 0 mm 3 m/s 744 mmHg 82%
    05:00 -1°C° 0 mm 3 m/s 744 mmHg 83%
    06:00 -1°C° 0 mm 3 m/s 744 mmHg 84%
    07:00 0°C° 0 mm 3 m/s 744 mmHg 81%
    08:00 0°C° 0 mm 4 m/s 744 mmHg 77%
    09:00 +3°C° 0 mm 4 m/s 744 mmHg 73%
    10:00 +4°C° 0.1 mm 4 m/s 744 mmHg 70%
    11:00 +4°C° 0.1 mm 4 m/s 744 mmHg 66%
    12:00 +5°C° 0.1 mm 4 m/s 744 mmHg 63%
    13:00 +5°C° 0.1 mm 4 m/s 744 mmHg 62%
    14:00 +5°C° 0.1 mm 4 m/s 744 mmHg 62%
    15:00 +6°C° 0.1 mm 4 m/s 744 mmHg 62%
    16:00 +5°C° 0.1 mm 4 m/s 744 mmHg 65%
    17:00 +4°C° 0.1 mm 3 m/s 744 mmHg 68%
    18:00 +4°C° 0.1 mm 3 m/s 744 mmHg 72%
    19:00 +4°C° 0 mm 2 m/s 744 mmHg 76%
    20:00 +3°C° 0 mm 2 m/s 744 mmHg 80%
    21:00 +2°C° 0 mm 2 m/s 744 mmHg 84%
    22:00 +2°C° 0 mm 2 m/s 744 mmHg 85%
    23:00 +1°C° 0 mm 2 m/s 745 mmHg 86%

    25 Septembre, Mercredi

    Heure Température Précipitation Vent Pression Humidité
    00:00 +1°C° 0 mm 2 m/s 745 mmHg 87%
    01:00 +1°C° 0 mm 2 m/s 745 mmHg 88%
    02:00 -1°C° 0 mm 2 m/s 745 mmHg 89%
    03:00 -1°C° 0 mm 2 m/s 745 mmHg 90%
    04:00 -1°C° 0 mm 2 m/s 745 mmHg 91%
    05:00 -1°C° 0 mm 2 m/s 745 mmHg 92%
    06:00 -2°C° 0 mm 2 m/s 745 mmHg 92%
    07:00 +1°C° 0 mm 2 m/s 745 mmHg 85%
    08:00 +2°C° 0 mm 2 m/s 745 mmHg 78%
    09:00 +4°C° 0 mm 2 m/s 745 mmHg 71%
    10:00 +4°C° 0 mm 3 m/s 745 mmHg 66%
    11:00 +5°C° 0 mm 3 m/s 746 mmHg 61%
    12:00 +7°C° 0 mm 3 m/s 746 mmHg 57%
    13:00 +7°C° 0 mm 3 m/s 746 mmHg 56%
    14:00 +7°C° 0 mm 3 m/s 745 mmHg 56%
    15:00 +8°C° 0 mm 3 m/s 745 mmHg 56%
    16:00 +7°C° 0 mm 2 m/s 745 mmHg 59%
    17:00 +7°C° 0 mm 1 m/s 745 mmHg 62%
    18:00 +6°C° 0 mm 1 m/s 745 mmHg 66%
    19:00 +6°C° 0 mm 1 m/s 745 mmHg 67%
    20:00 +5°C° 0 mm 1 m/s 745 mmHg 69%
    21:00 +4°C° 0 mm 1 m/s 746 mmHg 70%
    22:00 +4°C° 0 mm 1 m/s 746 mmHg 72%
    23:00 +4°C° 0 mm 1 m/s 746 mmHg 74%

    26 Septembre, Jeudi

    Heure Température Précipitation Vent Pression Humidité
    00:00 +3°C° 0 mm 2 m/s 746 mmHg 76%
    01:00 +3°C° 0 mm 2 m/s 746 mmHg 77%
    02:00 +4°C° 0 mm 1 m/s 746 mmHg 78%
    03:00 +4°C° 0 mm 1 m/s 746 mmHg 79%
    04:00 +3°C° 0 mm 1 m/s 746 mmHg 80%
    05:00 +3°C° 0 mm 1 m/s 746 mmHg 81%
    06:00 +2°C° 0 mm 2 m/s 746 mmHg 82%
    07:00 +3°C° 0 mm 2 m/s 746 mmHg 76%
    08:00 +5°C° 0 mm 2 m/s 746 mmHg 71%
    09:00 +6°C° 0 mm 2 m/s 746 mmHg 66%
    10:00 +8°C° 0 mm 2 m/s 746 mmHg 61%
    11:00 +9°C° 0 mm 3 m/s 746 mmHg 57%
    12:00 +10°C° 0 mm 3 m/s 746 mmHg 52%
    13:00 +10°C° 0 mm 3 m/s 745 mmHg 51%
    14:00 +11°C° 0 mm 3 m/s 745 mmHg 50%
    15:00 +11°C° 0 mm 3 m/s 744 mmHg 49%
    16:00 +10°C° 0 mm 3 m/s 744 mmHg 53%
    17:00 +10°C° 0 mm 2 m/s 744 mmHg 57%
    18:00 +9°C° 0 mm 2 m/s 744 mmHg 61%
    19:00 +9°C° 0 mm 2 m/s 743 mmHg 61%
    20:00 +8°C° 0 mm 3 m/s 743 mmHg 61%
    21:00 +8°C° 0 mm 3 m/s 743 mmHg 61%
    22:00 +8°C° 0 mm 3 m/s 742 mmHg 59%
    23:00 +8°C° 0 mm 3 m/s 742 mmHg 58%

    27 Septembre, Vendredi

    Heure Température Précipitation Vent Pression Humidité
    00:00 +7°C° 0 mm 4 m/s 742 mmHg 56%
    01:00 +7°C° 0 mm 4 m/s 741 mmHg 56%
    02:00 +8°C° 0 mm 3 m/s 741 mmHg 55%
    03:00 +8°C° 0 mm 3 m/s 741 mmHg 55%
    04:00 +7°C° 0 mm 3 m/s 740 mmHg 56%
    05:00 +7°C° 0 mm 3 m/s 740 mmHg 57%
    06:00 +7°C° 0 mm 3 m/s 739 mmHg 58%
    07:00 +7°C° 0 mm 3 m/s 739 mmHg 59%
    08:00 +8°C° 0 mm 3 m/s 739 mmHg 60%
    09:00 +9°C° 0 mm 3 m/s 738 mmHg 61%
    10:00 +9°C° 0.1 mm 3 m/s 738 mmHg 65%
    11:00 +8°C° 0.1 mm 2 m/s 738 mmHg 68%
    12:00 +8°C° 0.1 mm 2 m/s 738 mmHg 72%
    13:00 +9°C° 0.2 mm 1 m/s 738 mmHg 75%
    14:00 +9°C° 0.2 mm 1 m/s 738 mmHg 79%
    15:00 +7°C° 0.2 mm 0 m/s 738 mmHg 82%
    16:00 +8°C° 0.4 mm 1 m/s 738 mmHg 86%
    17:00 +7°C° 0.4 mm 2 m/s 738 mmHg 89%
    18:00 +7°C° 0.4 mm 2 m/s 738 mmHg 92%
    19:00 +5°C° 0 mm 3 m/s 739 mmHg 91%
    20:00 +5°C° 0 mm 5 m/s 739 mmHg 91%
    21:00 +4°C° 0 mm 6 m/s 740 mmHg 90%
    22:00 +4°C° 0 mm 6 m/s 740 mmHg 89%
    23:00 +4°C° 0 mm 6 m/s 740 mmHg 88%
    Voir plus